{"data":{"norad_id":68658,"intl_designator":"2026-076C","name":"HULIANWANG DIGUI-166","alt_names":[],"object_type":"PAYLOAD","status":"ACTIVE","operator":null,"country":"PRC","launch_date":"2026-04-08","launch_site_code":"TAISC","launch_vehicle":null,"mission":null,"orbit_class":"UNKNOWN","rcs_meters":null,"size_class":null,"mass_kg":null,"dimensions":null,"purposes":[],"wikipedia_slug":null,"has_3d_model":false,"image_url":null,"decayed_at":null,"tle_current":{"epoch":"2026-09-20T03:38:02.467680Z","epoch_age_seconds":93367,"freshness":"FRESH","line1":"1 68658U 26076C   26263.15141745  .00000022  00000+0  17437-4 0  9990","line2":"2 68658  86.4994  11.7405 0001365 113.5405 246.5873 13.24408687 21941","mean_motion":13.24408687,"eccentricity":0.0001365,"inclination_deg":86.4994,"raan_deg":11.7405,"arg_perigee_deg":113.5405,"mean_anomaly_deg":246.5873,"bstar":1.7437e-5,"rev_number":2194,"period_min":108.7277676547,"perigee_km":1166.8971352371,"apogee_km":1168.9572107563,"semimajor_km":7546.0641729967,"source":"CELESTRAK","updated_at":"2026-09-20T09:00:24.373599Z"}}}